ǯ����,��ʬ��,�Ǿ��������١�,ʿ���������١�,�����������١�,�Ǿ���®(m/s),ʿ����®(m/s),������®(m/s),����(���,���١ʡ��,����(hPa),�߱���(mm),�߱�����(�á�,�߱�����(mm/h),�ߤҤ礦��(hit/���),�ߤҤ礦����(�á�,�ߤҤ礦����(hit/���h),�ҡ�������(���,�ҡ������Ű���V),�Ÿ��Ű���V),�����Ű���V)
2006/05/01,00:00:01,354,167,352,0.0,1.1,5.4,21.9,80.0,1005.0,0.00,0,0.0,0.0,0,0.0,21.1,0.0,12.0,3.474
2006/05/01,00:10:01,48,190,0,0.0,1.9,6.2,22.4,77.9,1004.9,0.00,0,0.0,0.0,0,0.0,21.4,0.0,12.1,3.473
2006/05/01,00:20:01,350,159,335,0.0,1.5,4.9,22.2,78.5,1004.8,0.00,0,0.0,0.0,0,0.0,21.2,0.0,12.1,3.472
2006/05/01,00:30:01,314,123,270,0.0,1.4,3.4,22.1,77.9,1004.7,0.00,0,0.0,0.0,0,0.0,21.1,0.0,12.1,3.472
2006/05/01,00:40:01,315,144,307,0.0,1.0,3.5,22.4,76.6,1004.7,0.00,0,0.0,0.0,0,0.0,21.4,0.0,12.1,3.473
2006/05/01,00:50:01,331,130,324,0.0,1.3,3.6,22.6,78.2,1004.7,0.00,0,0.0,0.0,0,0.0,21.4,0.0,12.1,3.472
2006/05/01,01:00:01,296,129,287,0.0,1.4,4.5,22.5,76.9,1004.7,0.00,0,0.0,0.0,0,0.0,21.4,0.0,12.1,3.473
2006/05/01,01:10:01,9,185,5,0.0,1.9,5.6,22.6,76.5,1004.6,0.00,0,0.0,0.0,0,0.0,21.6,0.0,12.1,3.473
2006/05/01,01:20:01,18,190,17,0.1,1.5,5.1,22.4,76.9,1004.5,0.00,0,0.0,0.0,0,0.0,21.6,0.0,12.1,3.473
2006/05/01,01:30:01,352,173,339,0.0,1.4,4.8,22.5,77.2,1004.5,0.00,0,0.0,0.0,0,0.0,21.4,0.0,12.1,3.472
2006/05/01,01:40:01,158,221,30,0.0,1.8,6.0,22.6,78.4,1004.5,0.00,0,0.0,0.0,0,0.0,21.6,0.0,12.1,3.472
2006/05/01,01:50:01,48,211,20,0.0,1.7,5.3,22.4,80.2,1004.4,0.00,0,0.0,0.0,0,0.0,21.6,0.0,12.1,3.472
2006/05/01,02:00:01,68,215,12,0.1,1.5,3.7,22.5,79.8,1004.3,0.00,0,0.0,0.0,0,0.0,21.4,0.0,12.2,3.472
2006/05/01,02:10:01,121,212,279,0.1,1.6,3.9,22.4,80.9,1004.2,0.00,0,0.0,0.0,0,0.0,21.2,0.0,12.1,3.472
2006/05/01,02:20:01,40,189,8,0.1,2.1,5.0,22.3,81.7,1004.0,0.00,0,0.0,0.0,0,0.0,21.4,0.0,12.1,3.473
2006/05/01,02:30:01,25,198,346,0.0,1.3,3.8,22.3,82.4,1004.0,0.00,0,0.0,0.0,0,0.0,21.2,0.0,12.0,3.473
2006/05/01,02:40:01,25,192,267,0.0,1.1,3.0,22.2,82.7,1004.0,0.00,0,0.0,0.0,0,0.0,21.2,0.0,12.0,3.472
2006/05/01,02:50:01,2,162,249,0.0,1.2,3.5,22.3,82.7,1004.0,0.00,0,0.0,0.0,0,0.0,21.2,0.0,12.1,3.472
2006/05/01,03:00:01,6,174,333,0.0,0.8,2.0,22.2,82.7,1003.9,0.00,0,0.0,0.0,0,0.0,21.2,0.0,12.1,3.473
2006/05/01,03:10:01,340,162,325,0.0,0.9,3.4,22.4,83.1,1003.7,0.00,0,0.0,0.0,0,0.0,21.2,0.0,12.0,3.472
2006/05/01,03:20:01,139,217,341,0.1,1.9,3.9,22.4,83.3,1003.7,0.00,0,0.0,0.0,0,0.0,21.4,0.0,12.0,3.473
2006/05/01,03:30:01,141,212,279,0.4,1.9,5.1,22.4,83.1,1003.5,0.00,0,0.0,0.0,0,0.0,21.4,0.0,12.1,3.472
2006/05/01,03:40:01,335,143,322,0.0,0.7,2.8,22.3,83.5,1003.4,0.00,0,0.0,0.0,0,0.0,21.4,0.0,12.1,3.470
2006/05/01,03:50:01,283,90,232,0.0,1.1,2.3,22.2,83.4,1003.3,0.00,0,0.0,0.0,0,0.0,21.2,0.0,12.1,3.472
2006/05/01,04:00:01,206,8,165,0.0,0.8,2.7,22.2,83.2,1003.4,0.00,0,0.0,0.0,0,0.0,21.1,0.0,12.1,3.473
2006/05/01,04:10:01,135,311,127,0.0,1.0,2.9,22.4,83.5,1003.4,0.00,0,0.0,0.0,0,0.0,21.2,0.0,12.1,3.472
2006/05/01,04:20:01,124,273,93,0.0,1.5,3.7,22.5,83.4,1003.4,0.00,0,0.0,0.0,0,0.0,21.6,0.0,12.1,3.470
2006/05/01,04:30:01,31,204,30,0.0,1.0,3.4,22.6,82.2,1003.4,0.00,0,0.0,0.0,0,0.0,21.7,0.0,12.1,3.473
2006/05/01,04:40:01,314,135,305,0.0,0.8,2.6,22.7,81.8,1003.4,0.00,0,0.0,0.0,0,0.0,21.6,0.0,12.1,3.470
2006/05/01,04:50:01,158,258,75,0.0,1.5,3.6,22.8,82.4,1003.5,0.00,0,0.0,0.0,0,0.0,21.9,0.0,12.1,3.472
2006/05/01,05:00:01,74,202,281,0.0,1.9,4.8,22.8,82.9,1003.4,0.00,0,0.0,0.0,0,0.0,22.1,0.0,12.1,3.472
2006/05/01,05:10:01,48,196,12,0.0,1.3,3.6,22.7,83.3,1003.4,0.00,30,0.0,0.0,0,0.0,21.9,0.0,12.1,3.472
2006/05/01,05:20:01,109,194,316,0.1,1.6,3.4,22.8,83.4,1003.5,0.01,100,0.0,0.0,0,0.0,21.4,0.0,12.1,3.472
2006/05/01,05:30:01,50,210,14,0.1,1.4,3.1,22.8,83.8,1003.6,0.04,360,0.0,0.0,0,0.0,21.6,0.0,12.1,3.472
2006/05/01,05:40:01,10,179,0,0.0,1.7,3.8,22.6,84.9,1003.5,0.00,0,0.0,0.0,0,0.0,21.7,0.0,12.1,3.470
2006/05/01,05:50:01,358,169,298,0.0,1.8,5.1,22.6,85.4,1003.6,0.00,20,0.0,0.0,0,0.0,21.4,0.0,12.1,3.470
2006/05/01,06:00:01,349,160,342,0.1,1.5,4.9,22.6,85.4,1003.6,0.01,130,0.0,0.0,0,0.0,21.4,0.0,12.1,3.472
2006/05/01,06:10:01,337,163,325,0.0,0.9,3.2,22.5,85.7,1003.8,0.00,10,0.0,0.0,0,0.0,21.4,0.0,12.1,3.472
2006/05/01,06:20:01,124,226,351,0.0,0.6,1.4,22.6,85.7,1003.9,0.01,70,0.0,0.0,0,0.0,21.2,0.0,12.1,3.469
2006/05/01,06:30:01,83,173,261,0.2,1.1,2.7,22.7,85.0,1003.8,0.00,0,0.0,0.0,0,0.0,21.6,0.0,12.1,3.470
2006/05/01,06:40:01,79,186,357,0.0,1.0,2.6,22.7,85.0,1003.9,0.00,0,0.0,0.0,0,0.0,22.1,0.0,12.1,3.473
2006/05/01,06:50:01,10,189,357,0.1,2.2,5.9,22.9,85.1,1003.9,0.00,0,0.0,0.0,0,0.0,22.1,0.0,12.0,3.473
2006/05/01,07:00:01,54,185,355,0.1,2.6,6.4,23.0,84.7,1003.8,0.00,40,0.0,0.0,0,0.0,22.2,0.0,12.0,3.472
2006/05/01,07:10:01,13,170,353,0.0,2.3,6.3,23.2,84.1,1003.8,0.00,0,0.0,0.0,0,0.0,22.4,0.0,12.0,3.472
2006/05/01,07:20:01,346,170,341,0.0,1.0,5.5,23.3,83.9,1003.9,0.00,0,0.0,0.0,0,0.0,23.1,0.0,12.0,3.473
2006/05/01,07:30:01,37,203,358,0.0,1.9,5.3,23.4,83.4,1003.9,0.00,0,0.0,0.0,0,0.0,23.6,0.0,12.1,3.470
2006/05/01,07:40:01,45,200,359,0.0,2.3,7.6,23.4,83.4,1004.0,0.00,0,0.0,0.0,0,0.0,23.1,0.0,12.0,3.470
2006/05/01,07:50:01,24,198,13,0.1,2.2,5.3,23.5,83.6,1004.1,0.00,0,0.0,0.0,0,0.0,23.3,0.0,12.0,3.474
2006/05/01,08:00:01,15,191,349,0.0,2.3,6.6,23.5,83.8,1004.1,0.00,50,0.0,0.0,0,0.0,23.1,0.0,12.0,3.470
2006/05/01,08:10:01,22,197,8,0.0,2.1,4.8,23.6,83.9,1004.0,0.00,40,0.1,0.0,0,0.0,23.3,0.0,12.0,3.468
2006/05/01,08:20:01,9,186,335,0.0,1.6,4.6,23.6,84.4,1003.9,0.00,10,0.0,0.0,0,0.0,23.4,0.0,12.0,3.469
2006/05/01,08:30:01,0,179,355,0.0,1.7,4.0,23.8,83.9,1003.9,0.04,200,1.3,0.0,0,0.0,23.9,0.0,12.1,3.472
2006/05/01,08:40:01,24,188,334,0.1,2.0,5.7,23.8,84.2,1003.9,0.06,530,0.2,0.0,0,0.0,23.3,0.0,12.0,3.470
2006/05/01,08:50:01,356,164,343,0.0,1.5,3.7,24.0,84.5,1004.1,0.01,140,0.0,0.0,0,0.0,23.4,0.0,12.0,3.470
2006/05/01,09:00:01,11,184,0,0.0,1.1,2.8,23.9,85.0,1004.0,0.02,340,0.0,0.0,0,0.0,22.7,0.0,12.0,3.470
2006/05/01,09:10:01,341,157,337,0.0,1.3,3.2,23.8,85.6,1003.9,0.04,130,1.5,0.0,0,0.0,23.1,0.0,12.0,3.472
2006/05/01,09:20:01,340,156,315,0.0,1.6,5.0,23.8,85.9,1003.8,0.21,570,0.7,0.0,0,0.0,23.3,0.0,12.0,3.472
2006/05/01,09:30:01,9,169,343,0.0,1.6,4.1,23.9,86.6,1003.6,0.08,520,0.7,0.0,0,0.0,23.3,0.0,12.0,3.470
2006/05/01,09:40:01,15,190,355,0.0,1.3,3.0,24.0,86.1,1003.5,0.11,550,1.9,0.0,0,0.0,23.4,0.0,12.1,3.470
2006/05/01,09:50:01,307,85,188,0.0,1.0,3.3,24.3,85.9,1003.2,0.20,590,1.1,0.0,0,0.0,23.6,0.0,12.2,3.472
2006/05/01,10:00:01,160,312,130,0.0,1.1,2.6,24.1,85.6,1003.1,0.07,420,0.0,0.0,0,0.0,24.1,0.0,12.0,3.470
2006/05/01,10:10:01,54,215,30,0.0,2.5,9.1,23.8,85.7,1003.0,0.07,250,0.4,0.0,0,0.0,23.4,0.0,12.0,3.470
2006/05/01,10:20:01,343,160,321,0.1,3.5,7.9,23.7,86.1,1003.2,0.00,20,0.0,0.0,0,0.0,23.4,0.0,12.0,3.472
2006/05/01,10:30:01,19,159,325,0.2,4.2,9.9,23.9,86.7,1003.4,0.00,0,0.0,0.0,0,0.0,24.6,0.0,12.0,3.472
2006/05/01,10:40:01,44,155,332,0.2,4.6,11.3,23.9,86.4,1003.3,0.00,0,0.0,0.0,0,0.0,24.4,0.0,12.0,3.472
2006/05/01,10:50:01,41,157,310,0.2,4.2,9.6,24.2,86.7,1003.5,0.00,0,0.0,0.0,0,0.0,24.9,0.0,12.0,3.469
2006/05/01,11:00:01,19,154,300,0.2,3.7,10.7,24.2,86.1,1003.5,0.00,0,0.0,0.0,0,0.0,25.4,0.0,12.1,3.470
2006/05/01,11:10:01,342,148,267,0.2,3.1,7.6,24.1,86.4,1003.5,0.00,0,0.0,0.0,0,0.0,24.8,0.0,12.1,3.472
2006/05/01,11:20:01,349,144,319,0.0,3.5,8.6,23.8,86.9,1003.3,0.07,420,0.7,0.0,0,0.0,23.6,0.0,12.0,3.470
2006/05/01,11:30:01,31,143,317,0.0,2.2,8.0,23.6,88.1,1003.3,0.08,470,0.6,0.0,0,0.0,22.9,0.0,12.0,3.470
2006/05/01,11:40:01,334,154,328,0.1,2.2,8.0,23.6,88.3,1003.1,0.38,440,6.0,0.0,0,0.0,22.7,0.0,12.0,3.472
2006/05/01,11:50:01,0,159,291,0.3,3.3,9.2,23.3,88.7,1003.3,1.53,590,10.5,0.0,0,0.0,22.4,0.0,12.1,3.472
2006/05/01,12:00:01,25,153,303,0.2,4.8,11.0,21.9,85.8,1002.9,2.28,600,10.8,0.0,0,0.0,20.7,0.0,12.2,3.470
2006/05/01,12:10:01,69,137,239,0.1,3.7,8.7,22.5,87.4,1002.8,4.97,600,6.9,0.0,0,0.0,20.9,0.0,11.9,3.472
2006/05/01,12:20:01,70,141,235,0.1,3.3,7.4,23.3,88.1,1002.8,0.13,490,0.0,0.0,0,0.0,21.7,0.0,12.1,3.472
2006/05/01,12:30:01,2,184,349,0.3,2.6,6.4,23.5,88.2,1002.9,0.01,160,0.5,0.0,0,0.0,22.4,0.0,12.0,3.472
2006/05/01,12:40:01,141,220,343,0.2,2.2,5.8,23.2,88.9,1002.7,0.03,140,1.8,0.0,0,0.0,22.4,0.0,11.9,3.470
2006/05/01,12:50:01,83,208,25,0.0,2.7,7.0,22.7,89.3,1002.7,0.56,550,0.0,0.0,0,0.0,22.1,0.0,11.9,3.472
2006/05/01,13:00:01,25,195,314,0.0,2.0,5.8,22.7,90.0,1002.6,0.04,330,0.0,0.0,0,0.0,21.9,0.0,11.9,3.469
2006/05/01,13:10:01,83,177,334,0.2,1.9,4.1,22.8,90.1,1002.5,0.05,370,1.0,0.0,0,0.0,22.1,0.0,12.0,3.472
2006/05/01,13:20:01,25,182,277,0.0,2.1,5.0,22.8,90.1,1002.3,0.61,600,9.8,0.0,0,0.0,22.1,0.0,11.9,3.470
2006/05/01,13:30:01,79,177,355,0.0,2.5,5.2,22.7,90.2,1002.1,0.47,590,1.9,0.0,0,0.0,22.1,0.0,12.0,3.472
2006/05/01,13:40:01,0,172,325,0.1,2.7,7.0,22.8,90.4,1001.8,0.11,560,0.3,0.0,0,0.0,21.9,0.0,11.9,3.472
2006/05/01,13:50:01,49,179,304,0.0,3.1,6.9,22.7,90.6,1001.5,0.71,420,3.5,0.0,0,0.0,22.1,0.0,12.1,3.472
2006/05/01,14:00:01,35,178,317,0.0,2.2,5.7,22.9,90.6,1001.6,0.34,470,4.1,0.0,0,0.0,22.1,0.0,12.0,3.472
2006/05/01,14:10:01,15,187,302,0.0,1.5,4.0,23.1,90.3,1001.5,0.07,200,0.0,0.0,0,0.0,22.4,0.0,12.1,3.472
2006/05/01,14:20:01,25,189,4,0.1,1.5,4.4,23.3,90.1,1001.5,0.00,0,0.0,0.0,0,0.0,22.9,0.0,12.0,3.472
2006/05/01,14:30:01,9,181,271,0.0,1.8,4.0,23.5,89.8,1001.3,0.00,60,0.0,0.0,0,0.0,23.3,0.0,12.0,3.472
2006/05/01,14:40:01,58,186,319,0.0,1.9,4.4,23.5,89.5,1001.3,0.00,0,0.0,0.0,0,0.0,23.3,0.0,12.1,3.470
2006/05/01,14:50:01,109,183,252,0.2,1.9,3.7,23.5,89.1,1001.2,0.00,0,0.0,0.0,0,0.0,23.4,0.0,12.1,3.472
2006/05/01,15:00:01,82,167,254,0.1,1.5,3.8,23.7,88.9,1001.0,0.02,130,0.4,0.0,0,0.0,23.8,0.0,12.1,3.470
2006/05/01,15:10:01,325,132,309,0.0,0.8,2.3,23.9,88.9,1001.1,0.09,430,1.7,0.0,0,0.0,23.8,0.0,12.1,3.470
2006/05/01,15:20:01,312,114,289,0.0,1.1,2.2,24.0,89.3,1001.1,0.64,590,3.5,0.0,0,0.0,23.4,0.0,12.1,3.470
2006/05/01,15:30:01,51,135,283,0.2,1.2,2.6,23.7,89.7,1001.0,0.35,570,0.0,0.0,0,0.0,23.1,0.0,12.1,3.470
2006/05/01,15:40:01,340,125,247,0.1,1.0,2.9,23.6,90.3,1001.0,0.00,0,0.0,0.0,0,0.0,22.9,0.0,12.1,3.470
2006/05/01,15:50:01,304,111,178,0.0,1.6,3.0,23.2,90.3,1000.9,0.00,10,0.0,0.0,0,0.0,22.7,0.0,12.1,3.472
2006/05/01,16:00:01,71,131,193,0.4,1.7,3.2,23.1,90.3,1000.9,0.00,20,0.0,0.0,0,0.0,22.7,0.0,12.1,3.472
2006/05/01,16:10:01,58,136,195,0.1,1.6,3.5,22.9,90.6,1000.9,0.07,240,1.8,0.0,0,0.0,22.2,0.0,12.1,3.472
2006/05/01,16:20:01,2,144,315,0.0,1.5,3.5,22.9,90.3,1000.9,0.13,590,1.2,0.0,0,0.0,22.2,0.0,12.0,3.469
2006/05/01,16:30:01,69,135,203,0.3,2.2,4.3,22.2,90.8,1000.9,0.24,580,2.4,0.0,0,0.0,21.7,0.0,12.0,3.472
2006/05/01,16:40:01,45,139,286,0.5,2.0,4.3,22.3,91.2,1000.9,0.29,590,0.7,0.0,0,0.0,21.6,0.0,12.1,3.470
2006/05/01,16:50:01,351,136,284,0.0,2.3,5.1,21.9,91.2,1000.8,0.33,590,2.5,0.0,0,0.0,21.2,0.0,11.9,3.473
2006/05/01,17:00:01,66,156,217,0.2,2.1,4.4,21.7,91.2,1001.4,8.80,590,94.4,0.0,0,0.0,20.9,0.0,12.3,3.464
2006/05/01,17:10:01,92,141,185,0.4,3.0,7.0,21.6,92.4,1001.1,8.62,600,5.6,0.0,0,0.0,20.6,0.0,12.0,3.473
2006/05/01,17:20:01,3,136,269,0.1,2.2,6.8,21.3,91.6,1001.3,0.11,390,0.1,0.0,0,0.0,20.9,0.0,12.0,3.472
2006/05/01,17:30:01,24,136,284,0.1,3.1,7.7,20.9,91.7,1001.2,0.52,510,5.7,0.0,0,0.0,20.4,0.0,11.9,3.473
2006/05/01,17:40:01,314,118,224,0.1,3.2,12.3,20.8,92.0,1001.0,0.08,340,0.0,0.0,0,0.0,20.2,0.0,11.9,3.473
2006/05/01,17:50:01,358,119,236,0.2,3.6,8.8,20.7,92.0,1001.0,0.00,0,0.0,0.0,0,0.0,20.2,0.0,11.9,3.472
2006/05/01,18:00:01,0,137,197,0.2,3.2,6.7,21.2,91.4,1000.9,0.00,0,0.0,0.0,0,0.0,20.6,0.0,11.9,3.472
2006/05/01,18:10:01,28,139,221,0.3,3.5,6.7,21.2,91.1,1000.8,0.00,0,0.0,0.0,0,0.0,20.9,0.0,11.8,3.472
2006/05/01,18:20:01,318,129,300,0.2,4.2,9.9,20.8,91.3,1001.0,0.00,0,0.0,0.0,0,0.0,20.7,0.0,12.0,3.470
2006/05/01,18:30:01,309,109,258,0.1,4.5,9.4,20.5,92.1,1000.9,0.00,10,0.0,0.0,0,0.0,20.1,0.0,12.0,3.473
2006/05/01,18:40:01,20,114,176,0.7,5.1,9.4,20.4,92.7,1000.8,0.00,0,0.0,0.0,0,0.0,19.7,0.0,12.0,3.473
2006/05/01,18:50:01,34,122,284,0.2,4.8,9.4,20.4,93.0,1000.8,0.00,0,0.0,0.0,0,0.0,19.9,0.0,12.0,3.473
2006/05/01,19:00:01,310,122,302,0.2,5.1,9.7,20.5,93.1,1000.8,0.00,0,0.0,0.0,0,0.0,19.9,0.0,11.9,3.475
2006/05/01,19:10:01,333,134,294,0.2,4.6,9.9,20.8,93.1,1000.9,0.00,0,0.0,0.0,0,0.0,20.2,0.0,11.9,3.473
2006/05/01,19:20:01,61,138,191,0.3,3.5,7.8,21.0,92.5,1000.8,0.18,420,0.9,0.0,0,0.0,20.2,0.0,11.9,3.473
2006/05/01,19:30:01,38,129,267,0.5,4.0,9.1,21.1,92.2,1000.7,0.00,10,0.0,0.0,0,0.0,20.4,0.0,12.0,3.472
2006/05/01,19:40:01,321,115,294,0.2,3.6,7.1,20.9,91.6,1000.8,0.00,0,0.0,0.0,0,0.0,20.4,0.0,12.0,3.472
2006/05/01,19:50:01,290,108,284,0.1,4.1,8.3,20.7,92.0,1000.9,0.30,150,0.1,0.0,0,0.0,20.1,0.0,12.1,3.469
2006/05/01,20:00:01,289,104,284,0.1,3.5,7.6,20.7,92.3,1001.2,0.36,250,2.0,0.0,0,0.0,20.1,0.0,12.1,3.472
2006/05/01,20:10:01,47,125,298,0.1,3.5,7.0,20.6,92.5,1001.3,2.27,600,0.6,0.0,0,0.0,20.2,0.0,11.2,3.470
2006/05/01,20:20:01,56,133,272,0.3,3.4,7.5,20.6,92.6,1001.1,0.01,80,0.0,0.0,0,0.0,19.9,0.0,11.7,3.473
2006/05/01,20:30:01,76,139,210,0.2,3.1,6.8,20.9,93.2,1001.1,0.02,160,0.0,0.0,0,0.0,20.2,0.0,11.8,3.472
2006/05/01,20:40:01,85,155,220,0.2,2.4,5.1,21.6,92.5,1001.1,0.00,0,0.0,0.0,0,0.0,20.7,0.0,11.8,3.472
2006/05/01,20:50:01,37,148,229,0.1,2.2,5.1,21.6,92.0,1001.0,0.00,0,0.0,0.0,0,0.0,21.1,0.0,12.0,3.473
2006/05/01,21:00:01,4,162,257,0.1,2.4,5.7,22.0,92.0,1001.1,0.02,180,0.0,0.0,0,0.0,21.2,0.0,11.8,3.472
2006/05/01,21:10:01,77,158,225,0.1,2.3,5.8,22.1,91.9,1000.9,0.07,140,0.0,0.0,0,0.0,21.1,0.0,11.3,3.472
2006/05/01,21:20:01,346,156,307,0.2,2.5,6.2,22.3,91.6,1001.0,0.04,80,2.0,0.0,0,0.0,21.6,0.0,11.8,3.472
2006/05/01,21:30:01,350,143,219,0.4,2.3,5.4,21.7,90.9,1001.1,0.49,350,0.0,0.0,0,0.0,21.2,0.0,12.0,3.472
2006/05/01,21:40:01,358,135,313,0.0,2.4,5.6,21.8,92.4,1000.9,0.45,380,0.6,0.0,0,0.0,20.9,0.0,11.9,3.472
2006/05/01,21:50:01,352,177,340,0.0,1.7,5.4,22.4,91.8,1000.9,1.07,580,2.3,0.0,0,0.0,21.6,0.0,12.0,3.472
2006/05/01,22:00:01,174,332,120,0.0,3.6,10.3,21.5,92.1,1001.2,1.01,580,7.7,0.0,0,0.0,20.9,0.0,12.1,3.470
2006/05/01,22:10:01,228,41,216,0.1,5.9,12.8,21.2,93.0,1001.4,1.30,590,1.3,0.0,0,0.0,20.6,0.0,12.1,3.473
2006/05/01,22:20:01,249,73,244,0.0,3.8,10.2,21.0,93.4,1001.4,2.93,600,29.7,0.0,0,0.0,20.4,0.0,11.8,3.470
2006/05/01,22:30:01,17,107,280,0.1,4.4,9.1,21.1,93.6,1001.4,2.30,600,2.2,0.0,0,0.0,20.6,0.0,12.0,3.472
2006/05/01,22:40:01,41,113,266,0.1,5.0,9.1,21.1,93.6,1001.1,0.39,510,18.9,0.0,0,0.0,20.6,0.0,12.0,3.473
2006/05/01,22:50:01,344,116,165,0.4,5.3,11.6,21.1,93.6,1000.9,0.93,590,17.2,0.0,0,0.0,20.4,0.0,12.0,3.472
2006/05/01,23:00:01,303,112,228,0.2,4.3,8.3,21.1,93.7,1000.9,1.58,590,8.6,0.0,0,0.0,20.2,0.0,11.9,3.472
2006/05/01,23:10:01,309,117,288,0.1,4.3,7.7,21.2,93.7,1000.6,0.69,550,7.4,0.0,0,0.0,20.4,0.0,12.0,3.473
2006/05/01,23:20:01,322,119,167,0.4,4.4,8.3,21.2,93.8,1000.5,0.13,410,0.0,0.0,0,0.0,20.6,0.0,11.9,3.469
2006/05/01,23:30:01,55,112,168,0.7,4.4,7.4,21.3,93.8,1000.2,0.91,510,2.7,0.0,0,0.0,20.7,0.0,11.8,3.472
2006/05/01,23:40:01,19,113,224,0.3,4.4,9.2,21.6,93.8,1000.1,0.72,590,4.4,0.0,0,0.0,20.7,0.0,11.9,3.472
2006/05/01,23:50:01,355,117,193,0.1,3.7,7.8,21.7,93.9,1000.0,0.60,510,3.9,0.0,0,0.0,20.7,0.0,11.8,3.472
2006/05/02,00:00:01,325,107,276,0.1,3.9,13.7,21.7,93.9,1000.0,0.07,390,0.0,0.0,0,0.0,20.7,0.0,12.0,3.472
2006/05/02,00:10:01,318,116,232,0.2,3.2,7.1,21.7,94.0,999.6,0.20,280,2.2,0.0,0,0.0,20.7,0.0,11.7,3.473
2006/05/02,00:20:01,321,135,258,0.1,2.7,6.4,21.7,94.0,999.6,0.04,140,0.0,0.0,0,0.0,20.7,0.0,12.0,3.473
2006/05/02,00:30:01,330,129,241,0.2,2.5,5.0,21.8,94.1,999.7,0.00,0,0.0,0.0,0,0.0,20.9,0.0,12.1,3.473
2006/05/02,00:40:01,323,128,306,0.0,1.9,4.1,21.8,94.1,999.7,0.00,0,0.0,0.0,0,0.0,20.9,0.0,12.1,3.473
2006/05/02,00:50:01,328,139,310,0.0,1.6,3.8,21.8,94.1,999.7,0.00,0,0.0,0.0,0,0.0,20.9,0.0,12.1,3.473
2006/05/02,01:00:01,64,132,233,0.1,0.9,3.0,22.1,94.4,999.4,0.00,0,0.0,0.0,0,0.0,21.1,0.0,12.0,3.472
2006/05/02,01:10:01,25,181,333,0.0,1.2,4.3,23.2,94.4,999.1,0.00,0,0.0,0.0,0,0.0,21.7,0.0,12.1,3.470
2006/05/02,01:20:01,136,220,272,0.3,2.2,4.8,23.4,93.9,999.1,0.00,0,0.0,0.0,0,0.0,22.4,0.0,12.1,3.472
2006/05/02,01:30:01,138,220,276,0.4,2.2,4.5,23.5,93.8,999.0,0.43,330,2.1,0.0,0,0.0,22.6,0.0,12.0,3.472
2006/05/02,01:40:01,149,215,277,0.3,2.8,6.1,23.5,93.5,999.0,0.05,340,0.8,0.0,0,0.0,22.6,0.0,12.0,3.472
2006/05/02,01:50:01,63,207,11,0.2,3.4,7.2,23.7,93.3,998.8,0.53,590,2.1,0.0,0,0.0,22.7,0.0,12.0,3.472
2006/05/02,02:00:01,124,212,296,0.3,2.8,6.7,23.8,93.1,998.8,0.59,600,3.5,0.0,0,0.0,22.7,0.0,11.9,3.472
2006/05/02,02:10:01,138,217,25,0.1,2.7,5.8,23.7,92.9,998.6,0.60,590,4.3,0.0,0,0.0,22.6,0.0,12.0,3.470
2006/05/02,02:20:01,157,218,284,0.2,2.6,5.9,23.7,92.9,998.7,0.44,590,2.0,0.0,0,0.0,22.6,0.0,11.8,3.472
2006/05/02,02:30:01,146,213,280,0.2,2.7,6.1,23.8,92.9,998.6,0.56,590,4.9,0.0,0,0.0,22.6,0.0,12.0,3.472
2006/05/02,02:40:01,138,211,292,0.2,3.0,6.5,23.9,92.7,998.6,0.77,590,4.6,0.0,0,0.0,22.7,0.0,12.1,3.472
2006/05/02,02:50:01,117,210,278,0.2,2.9,6.2,24.0,92.6,998.4,1.26,600,9.2,0.0,0,0.0,22.9,0.0,11.8,3.472
2006/05/02,03:00:01,50,205,11,0.1,2.3,5.3,23.9,92.6,998.2,1.44,600,12.5,0.0,0,0.0,22.9,0.0,11.7,3.472
2006/05/02,03:10:01,79,239,41,0.1,2.0,5.4,23.7,92.1,998.6,2.74,600,18.3,0.0,0,0.0,23.1,0.0,12.1,3.472
2006/05/02,03:20:01,79,254,61,0.0,3.4,7.6,23.6,93.2,998.3,2.86,600,12.0,0.0,0,0.0,22.4,0.0,12.0,3.473
2006/05/02,03:30:01,74,229,289,0.4,3.6,8.3,23.6,93.5,998.1,1.74,580,17.2,0.0,0,0.0,22.6,0.0,12.2,3.470
2006/05/02,03:40:01,115,244,57,0.4,5.7,16.6,23.1,92.7,998.5,1.55,600,2.2,0.0,0,0.0,22.7,0.0,11.8,3.472
2006/05/02,03:50:01,104,243,6,0.3,8.2,16.4,22.1,93.0,998.6,0.89,600,8.6,0.0,0,0.0,21.4,0.0,12.2,3.472
2006/05/02,04:00:01,126,241,323,0.8,6.2,13.7,22.0,93.4,998.8,0.95,590,4.5,0.0,0,0.0,20.7,0.0,12.0,3.470
2006/05/02,04:10:01,181,240,293,0.2,5.8,11.6,22.1,93.6,998.7,0.96,590,5.7,0.0,0,0.0,21.1,0.0,12.1,3.472
2006/05/02,04:20:01,188,241,295,0.3,5.7,10.5,22.2,93.7,998.7,1.44,590,9.8,0.0,0,0.0,21.1,0.0,12.1,3.472
2006/05/02,04:30:01,171,237,305,0.8,4.8,9.5,22.2,93.7,998.4,1.62,600,8.2,0.0,0,0.0,21.2,0.0,11.8,3.469
2006/05/02,04:40:01,60,225,29,0.2,3.5,9.5,22.0,93.8,998.0,0.53,540,0.0,0.0,0,0.0,21.1,0.0,12.1,3.472
2006/05/02,04:50:01,70,204,286,0.3,2.8,7.2,21.9,94.0,997.7,0.00,0,0.0,0.0,0,0.0,20.9,0.0,12.1,3.472
2006/05/02,05:00:01,42,208,341,0.0,3.4,8.5,22.1,94.2,997.7,0.00,0,0.0,0.0,0,0.0,21.1,0.0,12.1,3.472
2006/05/02,05:10:01,154,214,313,0.5,3.8,7.6,22.3,94.2,997.7,0.00,0,0.0,0.0,0,0.0,21.4,0.0,12.0,3.473
2006/05/02,05:20:01,130,220,277,0.6,3.4,6.8,22.3,94.2,997.8,0.00,0,0.0,0.0,0,0.0,21.4,0.0,11.8,3.473
2006/05/02,05:30:01,136,218,281,0.3,3.3,7.4,22.4,94.2,997.8,0.00,0,0.0,0.0,0,0.0,21.4,0.0,12.0,3.472
2006/05/02,05:40:01,155,216,11,0.5,3.4,7.2,22.6,94.0,998.0,0.00,0,0.0,0.0,0,0.0,21.7,0.0,12.0,3.472
2006/05/02,05:50:01,50,221,303,0.1,2.9,7.0,22.6,93.9,998.0,0.00,0,0.0,0.0,0,0.0,21.7,0.0,12.0,3.472
2006/05/02,06:00:01,159,223,322,0.3,3.3,7.5,22.8,93.6,998.0,0.14,180,2.1,0.0,0,0.0,22.2,0.0,12.1,3.472
2006/05/02,06:10:01,163,222,281,0.4,3.5,7.2,22.9,93.4,998.0,0.53,480,0.0,0.0,0,0.0,21.9,0.0,12.0,3.473
2006/05/02,06:20:01,154,223,283,0.2,3.6,8.8,23.0,93.2,998.0,0.05,200,1.2,0.0,0,0.0,21.7,0.0,12.0,3.472
2006/05/02,06:30:01,165,221,274,0.8,3.8,9.1,23.0,93.1,997.9,0.03,160,0.0,0.0,0,0.0,21.9,0.0,12.0,3.472
2006/05/02,06:40:01,159,220,296,0.3,4.1,8.1,23.0,93.0,997.9,0.00,0,0.0,0.0,0,0.0,22.2,0.0,12.1,3.470
2006/05/02,06:50:01,166,220,294,0.9,4.1,9.4,23.0,92.8,998.0,0.00,0,0.0,0.0,0,0.0,22.1,0.0,12.1,3.472
2006/05/02,07:00:01,45,225,299,0.2,4.3,8.5,23.0,92.9,998.1,0.00,0,0.0,0.0,0,0.0,22.1,0.0,12.1,3.472
2006/05/02,07:10:01,151,232,334,0.1,4.7,9.2,23.0,92.9,998.4,0.00,0,0.0,0.0,0,0.0,22.2,0.0,12.1,3.472
2006/05/02,07:20:01,157,232,337,0.4,4.5,9.0,23.0,92.9,998.6,0.00,0,0.0,0.0,0,0.0,22.2,0.0,12.1,3.470
2006/05/02,07:30:01,60,234,286,0.7,4.3,8.6,23.0,93.1,998.5,0.00,0,0.0,0.0,0,0.0,22.2,0.0,12.1,3.470
2006/05/02,07:40:01,160,225,295,0.8,4.5,9.4,23.0,93.2,998.6,0.00,0,0.0,0.0,0,0.0,22.4,0.0,12.1,3.470
2006/05/02,07:50:01,164,228,287,1.0,4.3,9.0,23.0,93.2,998.6,0.00,0,0.0,0.0,0,0.0,22.6,0.0,12.1,3.470
2006/05/02,08:00:01,145,235,295,0.5,4.2,8.6,23.1,93.1,998.8,0.00,0,0.0,0.0,0,0.0,22.6,0.0,12.1,3.470
2006/05/02,08:10:01,162,234,286,0.9,4.1,8.3,23.2,93.0,998.8,0.00,0,0.0,0.0,0,0.0,23.1,0.0,12.1,3.470
2006/05/02,08:20:01,160,232,298,0.6,4.3,8.9,23.2,92.7,999.0,0.00,80,0.0,0.0,0,0.0,22.9,0.0,12.0,3.472
2006/05/02,08:30:01,169,235,292,1.0,4.5,9.0,23.2,92.7,998.9,0.00,10,0.0,0.0,0,0.0,22.7,0.0,12.1,3.472
2006/05/02,08:40:01,182,237,337,0.7,4.3,8.6,23.2,92.8,999.0,0.00,0,0.0,0.0,0,0.0,22.9,0.0,12.1,3.472
2006/05/02,08:50:01,155,235,292,0.3,4.0,8.8,23.3,92.9,998.9,0.00,0,0.0,0.0,0,0.0,23.1,0.0,12.0,3.472
2006/05/02,09:00:01,126,232,291,0.7,3.8,8.4,23.4,92.8,999.0,0.00,0,0.0,0.0,0,0.0,23.3,0.0,12.0,3.470
2006/05/02,09:10:01,160,238,44,0.2,4.8,9.8,23.4,92.9,999.2,0.00,10,0.1,0.0,0,0.0,23.3,0.0,12.1,3.470
2006/05/02,09:20:01,176,240,298,1.1,5.3,9.4,23.3,92.9,999.4,0.00,20,0.0,0.0,0,0.0,22.9,0.0,12.1,3.472
2006/05/02,09:30:01,198,244,296,1.1,6.3,11.6,23.2,93.1,999.4,0.25,480,2.3,0.0,0,0.0,22.6,0.0,12.0,3.472
2006/05/02,09:40:01,90,247,34,0.1,5.1,10.9,23.1,93.1,999.4,0.42,590,2.1,0.0,0,0.0,22.4,0.0,12.1,3.472
2006/05/02,09:50:01,177,241,333,0.8,5.2,9.7,23.2,93.2,999.3,0.17,560,0.2,0.0,0,0.0,22.4,0.0,12.1,3.470
2006/05/02,10:00:01,186,243,302,1.5,5.8,10.8,23.2,93.3,999.4,0.02,290,0.0,0.0,0,0.0,22.4,0.0,12.1,3.472
2006/05/02,10:10:01,183,250,8,0.2,4.0,9.1,23.4,93.4,999.6,0.00,110,0.0,0.0,0,0.0,23.1,0.0,12.0,3.472
2006/05/02,10:20:01,107,257,45,0.0,3.5,8.8,23.3,93.3,999.5,0.00,0,0.0,0.0,0,0.0,23.8,0.0,12.0,3.469
2006/05/02,10:30:01,174,258,49,0.3,3.4,7.5,23.6,92.9,999.3,0.00,0,0.0,0.0,0,0.0,25.9,0.0,12.1,3.470
2006/05/02,10:40:01,173,247,327,0.5,2.9,6.3,23.6,92.5,999.3,0.00,0,0.0,0.0,0,0.0,25.8,0.0,12.1,3.470
2006/05/02,10:50:01,177,259,46,0.3,3.1,6.8,23.5,92.4,999.5,0.00,0,0.0,0.0,0,0.0,25.4,0.0,12.1,3.470
2006/05/02,11:00:01,139,252,350,0.4,2.9,6.3,23.4,92.4,999.6,0.00,0,0.0,0.0,0,0.0,24.4,0.0,12.0,3.470
2006/05/02,11:10:01,176,260,329,0.4,3.1,7.0,23.2,92.6,999.6,0.00,0,0.0,0.0,0,0.0,23.6,0.0,12.0,3.472
2006/05/02,11:20:01,98,267,42,0.1,3.4,7.7,23.1,92.3,999.4,0.00,0,0.0,0.0,0,0.0,23.4,0.0,12.0,3.470
2006/05/02,11:30:01,111,288,104,0.0,2.7,7.9,22.9,91.5,999.6,0.00,0,0.0,0.0,0,0.0,23.8,0.0,12.0,3.472
2006/05/02,11:40:01,131,315,124,0.0,3.0,7.4,22.9,91.4,999.7,0.00,0,0.0,0.0,0,0.0,23.4,0.0,12.0,3.472
2006/05/02,11:50:01,157,331,142,0.1,3.4,8.1,22.8,91.1,999.7,0.00,0,0.0,0.0,0,0.0,23.8,0.0,12.0,3.470
2006/05/02,12:00:01,186,344,160,0.1,2.6,7.0,22.6,91.0,999.7,0.00,0,0.0,0.0,0,0.0,23.4,0.0,12.1,3.470
2006/05/02,12:10:01,166,344,162,0.0,2.4,6.6,22.4,90.7,999.7,0.00,0,0.0,0.0,0,0.0,22.9,0.0,12.1,3.472
2006/05/02,12:20:01,159,332,149,0.1,2.0,8.0,22.3,91.0,999.5,0.00,0,0.0,0.0,0,0.0,22.9,0.0,12.1,3.470
2006/05/02,12:30:01,153,320,136,0.0,1.6,4.3,22.4,90.6,999.6,0.00,0,0.0,0.0,0,0.0,22.9,0.0,12.0,3.470
2006/05/02,12:40:01,143,319,134,0.1,1.7,3.9,22.5,90.6,999.6,0.00,0,0.0,0.0,0,0.0,22.6,0.0,12.1,3.470
2006/05/02,12:50:01,148,330,145,0.0,1.9,5.2,22.5,90.6,999.6,0.00,0,0.0,0.0,0,0.0,22.4,0.0,12.1,3.472
2006/05/02,13:00:01,159,330,153,0.0,1.3,3.0,22.6,90.5,999.7,0.00,10,0.0,0.0,0,0.0,22.6,0.0,12.1,3.470
2006/05/02,13:10:01,149,323,139,0.0,1.1,2.9,22.8,90.6,999.7,0.21,220,7.6,0.0,0,0.0,22.2,0.0,12.0,3.472
2006/05/02,13:20:01,153,331,131,0.0,1.1,5.3,22.9,90.8,999.6,0.10,360,0.0,0.0,0,0.0,21.7,0.0,12.1,3.472
2006/05/02,13:30:01,262,6,163,0.1,2.4,5.9,22.7,91.2,999.5,0.00,0,0.0,0.0,0,0.0,21.6,0.0,12.0,3.473
2006/05/02,13:40:01,242,14,116,0.1,3.1,5.7,22.4,91.6,999.5,0.00,0,0.0,0.0,0,0.0,21.7,0.0,12.1,3.472
2006/05/02,13:50:01,210,14,187,0.1,3.3,6.5,22.3,91.9,999.4,0.00,0,0.0,0.0,0,0.0,21.4,0.0,12.0,3.470
2006/05/02,14:00:01,218,22,127,0.2,3.7,8.3,22.0,92.3,999.4,0.00,0,0.0,0.0,0,0.0,21.2,0.0,12.0,3.473
2006/05/02,14:10:01,230,24,171,0.2,4.2,8.2,21.8,92.7,999.4,0.07,280,2.0,0.0,0,0.0,20.7,0.0,12.2,3.472
2006/05/02,14:20:01,221,29,177,0.3,3.7,6.5,21.7,93.0,999.5,0.03,270,0.0,0.0,0,0.0,20.7,0.0,12.0,3.473
2006/05/02,14:30:01,279,26,130,0.1,3.2,5.8,21.7,93.2,999.5,0.00,0,0.0,0.0,0,0.0,20.6,0.0,12.0,3.474